STARLINK-1983, 47630

Orbit data source: Space-Track

STARLINK-1983, 47630 is a payload satellite owned by SpaceX/Seattle (US) in LEO that was launched on Tue, 16 Feb 2021 UTC via an FALCON 9 launch vehicle from the Air Force Eastern Test Range (AFETR). Payload-class satellites include a variety of spacecraft equipped with specific instruments for various scientific and technological missions. These include communications satellites like Starlink; space stations such as the ISS; scientific satellites like the Hubble; Earth observation satellites from companies like Planet Labs, Umbra, and HawkEye 360; GPS; miniature CubeSats for education and research; and military/defense satellites.

Loading next visibility...
Identifier
47630, 2021-012L
Orbit
LEO
Country
Flag of USUS
Related business
Manufacturer
SpaceX/Seattle
Mission
Operational Commercial Communications
Bus & Motor
STARLINK, Unknown motor
Mass
260 kg wet, ~248 kg dry
Launch date (UTC)
2021-02-16 (5 years ago)
Launch vehicle
FALCON 9
Launch site
Air Force Eastern Test Range (AFETR)
Object type
Payload
Rocket body
Debris
Shape & HBR
Box + 1 Pan, 10.1 m
Radar Cross Section
13.562 m², Large (>1 m²)

Expand to show TLE details & history
Last TLE update: 22 hours ago

TLE from 22 hours ago
0 STARLINK-1983
1 47630U 21012L   25346.30350300 -.00004435  00000-0 -27912-3 0  9992
2 47630  53.0532  83.9979 0001801  93.5483 266.5712 15.06384566267072
Epoch: 2025-12-12T07:17Z
TLE epoch observation values (Epoch: 2025-12-12T07:17:02.659Z)
Latitude
-0°
Longitude
-106.51024°
Altitude
548.213 km
Speed
7.589 km/s
True Right ascension
05h 35m 59s
True Declination
0° 00' 00"
Sunlit
Object was in full shadow at epoch
Visualization orbit readout
Latitude
Unknown
Longitude
Unknown
Altitude
Unknown
Speed
Unknown
Apparent Right ascension
Unknown
Apparent Declination
Unknown
Sunlit
N/A
Visualization observer readout
Local Sidereal Time
03:23:54
Azimuth
Unknown
Elevation
Unknown
Doppler factor
Unknown
Orbital elements
Apogee altitude
548.777 km
Perigee altitude
546.282 km
Semi-major axis
6,925.667 km
Eccentricity
0.00018
Inclination
53.0532°
RAAN
83.9979°
Arg. of periapsis
93.5483°
True anomaly
266.5506°
Mean anomaly
266.5712°
Eccentric anomaly
266.5609°
Mean motion
3.76574 °/min
Orbital period
95.6 mins
BSTAR
-0.00027912
Loading maneuver chart data...
Computing Atmospheric mass density...

Documentation

Showing up to 5 results
|